Regional Weather Roundup
Issued by NWS Wakefield, VA

Home | Current Version | Previous Version | Text Only | Print | Product List | Glossary On
Versions: 1 2 3 4 5 6 7 8 9 10 11 12 13 14 15 16 17 18 19 20 21 22 23 24 25 26 27 28 29 30 31 32 33 34 35 36 37 38 39 40 41 42 43 44 45 46 47 48 49 50
000
ASUS41 KAKQ 040715
RWRAKQ

REGIONAL WEATHER ROUNDUP
NATIONAL WEATHER SERVICE WAKEFIELD VA
300 AM EDT TUE AUG 04 2015

Note: "fair" indicates few or no clouds below 12,000 feet with no
significant weather and/or obstructions to visibility. * = Denotes
station may not report precipitation (e.g., rain,snow,etc.),
thunder or fog.

VAZ042-051-052>054-056-040800-
NORTHERN VIRGINIA

CITY           SKY/WX    TMP DP  RH WIND       PRES   REMARKS
WASH NATIONAL  MOCLDY    79  67  66 S5        29.84F HAZE
DULLES         PTCLDY    74  64  71 S8        29.85S
FORT BELVOIR   CLEAR     74  67  77 VRB1      29.84F
QUANTICO       NOT AVBL
FREDERICKSBRG* PTCLDY    78  70  75 SW9       29.86S
STAFFORD*      PTCLDY    72  66  82 CALM      29.90S
WARRENTON      CLEAR     70  67  90 S3        29.85S
CULPEPER*      PTCLDY    68  65  88 CALM      29.87S
MANASSAS*      PTCLDY    70  66  88 CALM      29.85S
LEESBURG*      PTCLDY    77  68  73 SW5       29.86R
WINCHESTER     MOCLDY    77  63  61 W6        29.87R
FRONT ROYAL*   FAIR      72  63  73 CALM      29.85F
LURAY*         FAIR      73  63  68 S6        29.89S
$$

VAZ048-049-060>072-079>083-040800-
CENTRAL AND SOUTH CENTRAL VIRGINIA

CITY           SKY/WX    TMP DP  RH WIND       PRES   REMARKS
RICHMOND       MOCLDY    77  71  82 S8        29.89S
CHESTERFIELD*  FAIR      75  61  60 SW6       29.92R
PETERSBURG*    MOCLDY    76  75  97 SW3       29.92R
HANOVER        MOCLDY    80  70  71 SW8       29.90S
TAPPAHANNOCK*  MOCLDY    76  69  80 CALM      29.89S
QUINTON*       FAIR      76  72  87 CALM      29.89R
CHARLOTTSVILLE CLOUDY    74  64  71 W3        29.88S
GORDONSVILLE*  FAIR      70  66  88 W5        29.88R
ORANGE*        CLOUDY    70  66  88 CALM      29.90R
LOUISA*        CLOUDY    75  68  78 S3        29.88S
BUMPASS*       FAIR      73  68  86 SE5       29.88S
FARMVILLE*     MOCLDY    76  68  76 SW6       29.91R
CREWE*         FAIR     N/A N/A N/A SW5       29.92S
FORT PICKETT*  FAIR      75  71  85 SW6       29.93R
CHASE CITY*    FAIR      77  73  88 S3        29.94S
CLARKSVILLE*   FAIR      73  70  88 SW6       29.94R
SOUTH HILL*    PTCLDY    73  70  89 SW6       29.99S
LAWRENCEVILLE* FAIR      75  72  88 SW7       29.93S
EMPORIA*       PTCLDY    73  70  88 CALM      29.94S
$$

VAZ088>098-040800-
SOUTHEAST VIRGINIA

CITY           SKY/WX    TMP DP  RH WIND       PRES   REMARKS
NORFOLK        CLEAR     76  71  85 SW16      29.93S
VIRGINIA BEACH CLEAR     79  72  79 SW15      29.93S
NORFOLK NAVAL  PTCLDY    75  72  90 S7G17     29.93F
WEST POINT*    CLEAR     81  72  75 S9G16     29.90S
SALUDA*        FAIR      78  73  84 SW9       29.88S
NEWPORT NEWS   CLEAR     77  73  87 S13       29.91F
LANGLEY AFB    CLEAR     77  73  86 S14       29.91F
FORT EUSTIS    CLEAR     77  77 100 S12G17    29.89F
WILLIAMSBURG*  CLEAR     81  73  78 SW12G17   29.92S
HR EXEC AP*    FAIR      75  70  83 S10       29.96S
FRANKLIN*      PTCLDY    74  72  92 S9        29.94S
WAKEFIELD      CLEAR     76  71  85 VRB5      29.92S
$$

VAZ020-022-025-037-045-040800-
WEST CENTRAL AND SOUTHWEST VIRGINIA

CITY           SKY/WX    TMP DP  RH WIND       PRES   REMARKS
STAUNTON*      MOCLDY    72  63  72 CALM      29.94S
WAYNESBORO*    FAIR      77  61  57 SW7       29.94R
HOT SPRINGS VA MOCLDY    69  58  67 W13       30.05F
LYNCHBURG      CLOUDY    69  64  84 CALM      29.94F
DANVILLE       MOCLDY    74  69  85 SW5       29.95F
SOUTH BOSTON*  FAIR      74  69  85 SW5       29.94S
MARTINSVILLE   MOCLDY    67  67 100 CALM      29.99S
ROANOKE        CLOUDY    75  60  59 W8        29.96F
BLACKSBURG     CLOUDY    70  62  77 CALM      30.05F
DUBLIN*          N/A     71  62  73 SW5       30.03F
MARION*        MOCLDY    66  61  83 SW3       30.09S
HILLSVILLE*    CLOUDY    67  59  73 SW6       30.05F
RICHLANDS*     FAIR      67  61  83 SE5       30.07F
WISE*          MOCLDY    68  61  77 CALM      30.08S
ABINGDON*      PTCLDY    66  61  84 CALM      30.04F
$$

MDZ021>025-VAZ099-100-040800-
SOUTHERN MARYLAND AND THE DELMARVA PENINSULA

CITY           SKY/WX    TMP DP  RH WIND       PRES   REMARKS
PATUXENT RIVER CLEAR     79  71  76 MISG      29.85S
BAY BRIDGE APT   N/A     79  70  73 SW10      29.84S
LEONARDTOWN    CLEAR     79  70  73 SW7       29.87F
DOVER          CLEAR     78  78 100 S14       29.82S
GEORGETOWN     CLEAR     76  74  93 SW8       29.87R
EASTON         CLEAR     80  76  87 SW8       29.88S
CAMBRIDGE      CLEAR     79  72  78 S6        29.85S
SALISBURY      CLEAR     76  75  97 S6        29.87S
OCEAN CITY     CLEAR     79  75  87 VRB7G18   29.88R
WALLOPS ISLAND CLEAR     78  76  93 S9        29.89R
ACCOMACK*      CLEAR     79  79 100 SW10      29.90S
$$

NCZ012>017-030>032-040800-
NORTH CENTRAL AND EASTERN NORTH CAROLINA

CITY           SKY/WX    TMP DP  RH WIND       PRES   REMARKS
ROANOKE RAPIDS FAIR      73  70  88 S9        29.95S
RALEIGH        MOCLDY    76  70  82 SW7       29.96F
ELIZABETH CITY MOCLDY    78  75  90 SW12      29.96F
AHOSKIE*       PTCLDY    74  72  93 S5        29.95F
EDENTON*       MOCLDY    77  74  91 SW6       29.97S
CURRITUCK*     CLEAR     78  73  85 SW5       29.97R
KILL DEVIL HLS CLEAR     79  75  87 SW6       29.96F
MANTEO         PTCLDY    79  76  91 S16       29.98S
CAPE HATTERAS  CLOUDY    80  76  87 SW10      29.99F
TARBORO*         N/A     75  73  93 S3        29.97S
GOLDSBORO      CLEAR     75  74  98 S2        29.95S
WASHINGTON     CLEAR     76  74  95 S3        29.98S
GREENVILLE     CLEAR     75  73  94 SW7       29.99S
NEW BERN       CLOUDY    78  75  90 CALM      29.99F
WILMINGTON     MOCLDY    80  76  87 S5        29.96F
$$

VAZ048-040800-
ELSEWHERE

CITY           SKY/WX    TMP DP  RH WIND       PRES   REMARKS
HARRISBURG PA  CLOUDY    73  63  70 W6        29.84R THUNDER
BALTIMORE      PTCLDY    75  66  73 CALM      29.83S
ANNAPOLIS      CLEAR     78  67  68 CALM      29.83S
ANDREWS AFB    CLEAR     76  68  76 S10       29.85S
PHILADELPHIA   MOCLDY    77  63  61 CALM      29.84S
HENDERSON NC   CLEAR     75  66  74 S9        29.95F
GREENSBORO     MOCLDY    75  69  81 SW8       29.97S
ROCKY MOUNT    CLEAR     76  73  91 S7        29.97R
$$

VAZ100-040800-
MARINE

STATION/POSITION TIME  TEMP    WIND        PRES    WAVE   SWELL
                       AIR SEA DIR/SP/G            HT/PER HT/PER
                 (UTC) (F)     (DEG/KT/KT) (MB)    (FT/S) (FT/S)
BRANDYWINE LGT   0600   77 73  220/ 16/ 17 1010.8F
CAPE MAY NJ      0600   77 76  200/  9/ 12 1010.4F
LEWES DE         0600   79 74  220/  8/ 12 1010.7F
15NM E FENWICK I 0650   79 79  200/ 19/ 25 1011.4F   6/ 7   2/ 9
OCEAN-CITY-INLET 0600   80 75  230/ 16/ 19 1010.6F
WACHAPREAGUE VA  0618   79 83  220/ 10/ 14 1012.5F
GOOSES REEF MD   0700   81 82  230/ 12/ 14 1011.6F
COVE POINT MD    0600   80     230/ 12/ 16 1011.4F
SOLOMONS ISLAND  0600      83                N/A
BISHOPS HEAD MD  0600   82 82  210/ 19/ 23 1010.0F
PINEY POINT MD   0600          240/ 16/ 19   N/A
POTOMAC MD       0700   81 83  240/ 16/ 19 1010.3S   2/ 3
CAMBRIDGE MD     0600   80 84  200/  4/  8 1010.1R
LEWISETTA VA     0600   80 84  230/ 11/ 14 1011.0R
RAPPAHANNOCK LGT 0600          210/ 20/ 22 1012.6R
STINGRAY PT      0700   81 83  230/ 17/ 21 1012.0S   2/ 2
YORK RVR RNG VA  0600   80     230/ 20/ 23 1011.8F
YORKTOWN VA      0600   79 84  200/  9/ 15 1012.3S
JAMESTOWN VA     0700   78 85  210/ 14/ 19   N/A
DOMINION TERM VA 0600   78     210/ 17/ 20 1012.8F
KIPTOPEKE VA     0600      82  220/ 19/ 23   N/A
CHES BAY BRIDGE  0600   78 76  190/ 18/ 21 1012.7S
CAPE HENRY VA    0600   76     200/ 12/ 18   N/A
CHESAPEAKE LGHT  0600   78     210/ 23/ 25 1013.6S
WILLOUBY STN VA  0600   78     210/ 16/ 19 1014.0F
CAPE HENRY BUOY  0628      80                N/A     4/ 5   2/11
1ST LANDING BUOY 0700      75              1012.9F   2/ 3
CAPE CHARLES BUO 0626      76                N/A     3/ 5   2/12
OFFSHORE WE BUOY 0611      82                N/A     5/ 5   2/11
64NM E OF VA BCH 0650   81 81  210/ 23/ 29 1013.7R   7/ 6   2/11
DUCK PIER NC     0600   79 64  200/ 12/ 20 1013.8S
44100 DUCK FRF   0624      78                N/A     3/ 6
44056 DUCK FRF   0611      69                N/A     2/11
OREGON INLET NC  0600   80 80  190/ 20/ 24 1015.0S
HATTERAS NC      0600   80 79  190/  5/  9 1015.4F
DIAMOND SHLS NC  0650   82 84  200/ 19/ 21 1015.6F   5/ 5   2/11
CAPE LOOKOUT NC  0700   81     200/  9/ 13 1015.2F
$$



USA.gov is the U.S. government's official web portal to all federal, state and local government web resources and services.